WMT758 LATI-LIBD

Flight info

Callsign WMT758
Flight time N/A
Altitude 20000
Route DIRES DCT PAPIZ DCT ENOXA
Aircraft A21N/M-SDE1E2E3FGIJ1J4RWXY/LB1

Departure

Time N/A
Airport Tirana International Airport Mother Teresa (LATI)

Arrival

Time 2026-05-03 20:24
Airport Bari Karol Wojtyła International Airport (LIBD)
Time Latitude Longitude Altitude Speed Heading
2026-05-03 20:15 41.20716 17.43210 7832 ft 282 kts 275°
2026-05-03 20:15 41.20776 17.40611 7534 ft 281 kts 275°
2026-05-03 20:15 41.20836 17.38026 7234 ft 280 kts 274°
2026-05-03 20:15 41.20895 17.35448 6944 ft 279 kts 274°
2026-05-03 20:16 41.20953 17.32866 6650 ft 279 kts 274°
2026-05-03 20:16 41.21010 17.30295 6353 ft 278 kts 274°
2026-05-03 20:16 41.21065 17.27770 6098 ft 276 kts 274°
2026-05-03 20:16 41.21120 17.25237 5845 ft 274 kts 273°
2026-05-03 20:17 41.21175 17.22719 5595 ft 272 kts 273°
2026-05-03 20:17 41.21228 17.20213 5348 ft 270 kts 273°
2026-05-03 20:17 41.21281 17.17725 5069 ft 269 kts 273°
2026-05-03 20:17 41.21333 17.15255 4795 ft 267 kts 273°
2026-05-03 20:18 41.21384 17.12799 4517 ft 265 kts 273°
2026-05-03 20:18 41.21434 17.10359 4240 ft 263 kts 273°
2026-05-03 20:18 41.21473 17.07935 3963 ft 262 kts 270°
2026-05-03 20:18 41.21271 17.05531 3706 ft 260 kts 262°
2026-05-03 20:19 41.20934 17.03215 3455 ft 250 kts 260°
2026-05-03 20:19 41.20590 17.01016 3211 ft 241 kts 260°
2026-05-03 20:19 41.20231 16.98892 3010 ft 229 kts 256°
2026-05-03 20:19 41.19740 16.96925 2780 ft 218 kts 252°
2026-05-03 20:20 41.19227 16.95089 2575 ft 207 kts 251°
2026-05-03 20:20 41.18734 16.93354 2342 ft 195 kts 251°
2026-05-03 20:20 41.18267 16.91710 2100 ft 185 kts 251°
2026-05-03 20:20 41.17839 16.90200 2012 ft 166 kts 252°
2026-05-03 20:21 41.17452 16.88836 2002 ft 152 kts 252°
2026-05-03 20:21 41.17086 16.87536 1826 ft 150 kts 252°
2026-05-03 20:21 41.16722 16.86239 1584 ft 149 kts 252°
2026-05-03 20:21 41.16361 16.84953 1373 ft 149 kts 251°
2026-05-03 20:22 41.15998 16.83665 1184 ft 149 kts 251°
2026-05-03 20:22 41.15635 16.82373 996 ft 149 kts 250°
2026-05-03 20:22 41.15274 16.81110 742 ft 147 kts 249°
2026-05-03 20:22 41.14921 16.79851 489 ft 144 kts 251°
2026-05-03 20:23 41.14569 16.78607 315 ft 144 kts 249°
2026-05-03 20:23 41.14224 16.77367 136 ft 141 kts 249°
2026-05-03 20:23 41.13899 16.76228 135 ft 114 kts 249°
2026-05-03 20:23 41.13685 16.75473 159 ft 61 kts 249°
2026-05-03 20:24 41.13557 16.75020 165 ft 50 kts 249°
2026-05-03 20:24 41.13451 16.74727 174 ft 11 kts 194°
2026-05-03 20:24 41.13390 16.74781 175 ft 11 kts 120°
2026-05-03 20:24 41.13351 16.74873 176 ft 11 kts 113°
2026-05-03 20:25 41.13359 16.74984 173 ft 14 kts 68°
2026-05-03 20:25 41.13402 16.75131 169 ft 20 kts 69°
2026-05-03 20:25 41.13455 16.75321 162 ft 24 kts 69°
2026-05-03 20:25 41.13515 16.75534 161 ft 25 kts 70°
2026-05-03 20:26 41.13580 16.75765 156 ft 27 kts 69°
2026-05-03 20:26 41.13635 16.75963 149 ft 18 kts 82°
2026-05-03 20:26 41.13600 16.76067 147 ft 11 kts 136°
2026-05-03 20:26 41.13555 16.76140 149 ft 10 kts 106°
2026-05-03 20:27 41.13562 16.76204 147 ft 1 kts 101°
2026-05-03 20:27 41.13558 16.76208 147 ft 1 kts 141°
2026-05-03 20:27 41.13541 16.76215 148 ft 4 kts 160°
2026-05-03 20:27 41.13517 16.76226 149 ft 3 kts 160°
2026-05-03 20:28 41.13504 16.76233 149 ft 0 kts 159°